| time (UTC) | temp F | wind direction | speed MPH | gust MPH | rain 1hr in | rain 24hr in | rain mn in | humidity % | barometer mb |
| 20260504081552 | 43 | 31 | 0.0 | 4.0 | 0.00 | 0.00 | 0.00 | 67 | 1038.1 |
| 20260504044602 | 32 | 0 | 0.0 | 0.0 | 0.00 | 0.00 | 0.00 | 89 | 1038.5 |
| 20260504043053 | 31 | 0 | 0.0 | 0.0 | 0.00 | 0.00 | 0.00 | 90 | 1038.5 |
| 20260504041554 | 30 | 0 | 0.0 | 0.0 | 0.00 | 0.00 | 0.00 | 90 | 1038.5 |
| 20260504040106 | 30 | 0 | 0.0 | 0.0 | 0.00 | 0.00 | 0.00 | 90 | 1038.4 |
| 20260504034611 | 30 | 0 | 0.0 | 0.0 | 0.00 | 0.00 | 0.00 | 89 | 1038.3 |
| 20260504033051 | 30 | 0 | 0.0 | 0.0 | 0.00 | 0.00 | 0.00 | 88 | 1038.3 |
| 20260504031548 | 31 | 0 | 0.0 | 0.0 | 0.00 | 0.00 | 0.00 | 87 | 1038.1 |
| 20260504030108 | 31 | 0 | 0.0 | 0.0 | 0.00 | 0.00 | 0.00 | 86 | 1038.1 |
| 20260504024555 | 31 | 0 | 0.0 | 0.0 | 0.00 | 0.00 | 0.00 | 86 | 1038.1 |
| 20260504023050 | 32 | 0 | 0.0 | 0.0 | 0.00 | 0.00 | 0.00 | 85 | 1038.2 |
| 20260504021554 | 32 | 0 | 0.0 | 0.0 | 0.00 | 0.00 | 0.00 | 84 | 1038.2 |
| 20260504020046 | 33 | 0 | 0.0 | 0.0 | 0.00 | 0.00 | 0.00 | 82 | 1038.1 |
| 20260504014552 | 34 | 0 | 0.0 | 0.0 | 0.00 | 0.00 | 0.00 | 80 | 1037.9 |
| 20260504013052 | 35 | 0 | 0.0 | 1.0 | 0.00 | 0.00 | 0.00 | 79 | 1037.7 |
| 20260504011550 | 36 | 0 | 0.0 | 1.0 | 0.00 | 0.00 | 0.00 | 78 | 1037.5 |
| 20260504010051 | 37 | 0 | 0.0 | 0.0 | 0.00 | 0.00 | 0.00 | 76 | 1037.2 |
| 20260504004549 | 38 | 0 | 0.0 | 0.0 | 0.00 | 0.00 | 0.00 | 72 | 1037.0 |
| 20260504003047 | 40 | 0 | 0.0 | 0.0 | 0.00 | 0.00 | 0.00 | 66 | 1037.0 |
| 20260504001602 | 42 | 0 | 0.0 | 0.0 | 0.00 | 0.00 | 0.00 | 62 | 1036.9 |
| 20260504000050 | 43 | 0 | 0.0 | 1.0 | 0.00 | 0.00 | 0.00 | 56 | 1036.7 |
| 20260503234549 | 44 | 0 | 0.0 | 1.0 | 0.00 | 0.00 | 0.00 | 54 | 1036.7 |
| 20260503233049 | 45 | 332 | 0.0 | 3.0 | 0.00 | 0.00 | 0.00 | 50 | 1036.5 |
| 20260503231552 | 46 | 243 | 0.0 | 7.0 | 0.00 | 0.00 | 0.00 | 49 | 1036.4 |
| 20260503230047 | 47 | 319 | 2.0 | 4.0 | 0.00 | 0.00 | 0.00 | 47 | 1036.4 |
| 20260503224544 | 47 | 360 | 2.0 | 4.0 | 0.00 | 0.01 | 0.00 | 45 | 1036.3 |
| 20260503223049 | 47 | 311 | 2.0 | 6.0 | 0.00 | 0.01 | 0.00 | 47 | 1036.3 |
| 20260503221549 | 46 | 0 | 2.0 | 5.0 | 0.00 | 0.01 | 0.00 | 47 | 1036.3 |
| 20260503220050 | 46 | 323 | 1.0 | 6.0 | 0.00 | 0.01 | 0.00 | 49 | 1036.2 |
| 20260503214556 | 46 | 309 | 2.0 | 6.0 | 0.00 | 0.02 | 0.00 | 47 | 1036.0 |
| 20260503213052 | 46 | 313 | 3.0 | 9.0 | 0.00 | 0.02 | 0.00 | 46 | 1036.1 |
| 20260503211554 | 47 | 307 | 3.0 | 9.0 | 0.00 | 0.02 | 0.00 | 45 | 1035.8 |
| 20260503210052 | 48 | 298 | 3.0 | 8.0 | 0.00 | 0.02 | 0.00 | 45 | 1035.5 |
| 20260503204555 | 48 | 311 | 2.0 | 8.0 | 0.00 | 0.02 | 0.00 | 44 | 1035.4 |
| 20260503203053 | 48 | 10 | 2.0 | 8.0 | 0.00 | 0.02 | 0.00 | 45 | 1035.4 |
| 20260503201547 | 48 | 315 | 2.0 | 5.0 | 0.00 | 0.02 | 0.00 | 48 | 1035.4 |
| 20260503200047 | 48 | 5 | 2.0 | 8.0 | 0.00 | 0.02 | 0.00 | 45 | 1035.3 |
| 20260503194549 | 49 | 342 | 2.0 | 11.0 | 0.00 | 0.02 | 0.00 | 45 | 1035.4 |
| 20260503193106 | 48 | 293 | 3.0 | 13.0 | 0.00 | 0.02 | 0.00 | 50 | 1035.2 |
| 20260503191553 | 48 | 283 | 3.0 | 8.0 | 0.00 | 0.02 | 0.00 | 46 | 1035.1 |
| 20260503190105 | 49 | 279 | 2.0 | 11.0 | 0.00 | 0.02 | 0.00 | 46 | 1035.1 |
| 20260503184553 | 48 | 352 | 2.0 | 7.0 | 0.00 | 0.02 | 0.00 | 44 | 1035.2 |
| 20260503183059 | 47 | 41 | 2.0 | 9.0 | 0.00 | 0.02 | 0.00 | 45 | 1035.1 |
| 20260503181551 | 48 | 267 | 2.0 | 8.0 | 0.00 | 0.02 | 0.00 | 46 | 1035.0 |
| 20260503180055 | 48 | 352 | 3.0 | 11.0 | 0.00 | 0.02 | 0.00 | 44 | 1035.1 |
| 20260503174551 | 51 | 331 | 3.0 | 11.0 | 0.00 | 0.03 | 0.00 | 46 | 1034.7 |
| 20260503173111 | 51 | 360 | 4.0 | 11.0 | 0.00 | 0.03 | 0.00 | 43 | 1034.9 |
| 20260503171552 | 49 | 259 | 5.0 | 15.0 | 0.00 | 0.03 | 0.00 | 47 | 1034.8 |